Location: Unspecified
(50.7693°N, 0.0000°E)
Time: 22:58:06
(UTC+00:00)

A-11 Canister half - Pass Details

Date: 26 June 2019
Orbit: 1526 x 1683 km, 47.3° (Epoch: 15 July)

Event Time Altitude Azimuth Distance (km) Brightness Sun altitude
Exits shadow 01:25:02 - 165° (SSE) 3,925 10.6 -13.7°
Reaches altitude 10° 01:25:53 10° 160° (SSE) 3,774 10.6 -13.6°
Maximum altitude 01:30:58 16° 127° (SE) 3,299 10.6 -13.3°
Drops below altitude 10° 01:35:59 10° 94° (E) 3,726 11.2 -13.1°
Sets 01:40:35 0° 75° (ENE) 4,695 12.1 -12.8°
